Weather History for CWWK - January, 2013

Change the Weather History Date:

Sunday, January 6, 2013

  Actual Average Record
Temperature  
Mean Temperature 42 °F -  
Max Temperature 44 °F - - ()
Min Temperature 41 °F - - ()
Degree Days  
Heating Degree Days 22    
Moisture  
Dew Point 40 °F    
Average Humidity 89    
Maximum Humidity 91    
Minimum Humidity 83    
Precipitation  
Precipitation 0.31 in - - ()
Sea Level Pressure  
Sea Level Pressure 30.11 in    
Wind  
Wind Speed 4 mph ()    
Max Wind Speed 8 mph    
Max Gust Speed -    
T = Trace of Precipitation, MM = Missing Value Source: Averaged Metar Reports

Daily Weather History Graph

Daily Weather History Graph

Search for Another Location

Airport or City:

Trip Planner

Search our weather history database for the weather conditions in past years. The results will help you decide how hot, cold, wet, or windy it might be!

Date:

Astronomy

Jan. 06, 2013 Rise Set
Actual Time 8:04 AM PST 4:30 PM PST
Civil Twilight 7:27 AM PST 5:07 PM PST
Nautical Twilight 6:47 AM PST 5:47 PM PST
Astronomical Twilight 6:09 AM PST 6:25 PM PST
Moon 2:13 AM PST (1/6) 12:10 PM PST (1/6)
Length of Visible Light 9h 39m
Length of Day
8h 26m
Waning Crescent, 32% of the Moon is Illuminated
Jan 6
Waning Crescent
Jan 11
New
Jan 18
First Quarter
Jan 26
Full
Feb 3
Last Quarter

Hourly Weather History & Observations

Time (PST) Temp. Windchill Dew Point Humidity Pressure Visibility Wind Dir Wind Speed Gust Speed Precip Events Conditions
12:00 AM 42.8 °F 41.1 °F 40.3 °F 91% 30.12 in - SSE 3.5 mph - N/A   Unknown
1:00 AM 41.4 °F - 38.7 °F 90% 30.13 in - SSE 2.3 mph - N/A   Unknown
2:00 AM 41.0 °F - 38.1 °F 89% 30.14 in - SSE 2.3 mph - N/A   Unknown
3:00 AM 43.0 °F 39.5 °F 39.9 °F 89% 30.14 in - South 5.8 mph - N/A   Unknown
4:00 AM 42 °F - 39 °F 85% 30.14 in - SSE 3.5 mph - -  
4:00 AM 42.1 °F 40.2 °F 39.0 °F 89% 30.14 in - SSE 3.5 mph - N/A   Unknown
5:00 AM 42.3 °F 39.4 °F 39.4 °F 90% 30.14 in - SSE 4.6 mph - N/A   Unknown
6:00 AM 42.4 °F 38.8 °F 39.6 °F 90% 30.13 in - SSE 5.8 mph - N/A   Unknown
7:00 AM 43.0 °F 38.2 °F 39.7 °F 88% 30.14 in - SSE 8.1 mph - N/A   Unknown
8:00 AM 42.1 °F - 38.7 °F 88% 30.15 in - SE 1.2 mph - N/A   Unknown
9:00 AM 43.0 °F 39.5 °F 39.4 °F 87% 30.15 in - SSE 5.8 mph - 0.01 in   Unknown
10:00 AM 43.7 °F 40.3 °F 39.9 °F 87% 30.16 in - SSE 5.8 mph - N/A   Unknown
11:00 AM 43.7 °F 39.7 °F 40.3 °F 88% 30.16 in - SSE 6.9 mph - 0.02 in   Unknown
12:00 PM 43.5 °F 40.1 °F 40.1 °F 88% 30.14 in - South 5.8 mph - 0.04 in   Unknown
1:00 PM 43.7 °F 41.1 °F 40.3 °F 88% 30.13 in - SSE 4.6 mph - 0.02 in   Unknown
2:00 PM 44.1 °F - 40.6 °F 88% 30.12 in - East 1.2 mph - 0.01 in   Unknown
3:00 PM 44.1 °F - 41.0 °F 89% 30.10 in - East 2.3 mph - 0.02 in   Unknown
4:00 PM 44 °F - 41 °F 83% 30.10 in - ENE 1.2 mph - -  
4:00 PM 43.7 °F - 40.6 °F 89% 30.10 in - ENE 1.2 mph - 0.02 in   Unknown
7:00 PM 43.2 °F - 40.8 °F 91% 30.07 in - NE 2.3 mph - 0.05 in   Unknown
8:00 PM 42.3 °F 40.5 °F 39.9 °F 91% 30.06 in - ENE 3.5 mph - 0.05 in   Unknown
9:00 PM 41.9 °F 39.0 °F 39.6 °F 91% 30.04 in - ENE 4.6 mph - 0.05 in   Unknown
10:00 PM 42 °F - 39 °F 85% 30.03 in - East 5.8 mph - -  
10:00 PM 41.7 °F 38.0 °F 39.0 °F 90% 30.03 in - East 5.8 mph - 0.07 in   Unknown
11:00 PM 41.2 °F 38.2 °F 38.7 °F 91% 30.01 in - NE 4.6 mph - 0.06 in   Unknown